Theta_e
295 294 294 294 295 296 296 293 291 297 295 290 281 287 295 298 298 299 300 302 306 302 306 306 308 309 310 307 311 315 312 313 315 316 311 311 313 314 313 317 316 311 311 313
294 294 294 294 294 295 296 289 291 295 295 290 291 294 295 296 297 297 298 298 300 300 302 306 307 305 304 306 307 315 315 317 317 315 314 311 315 314 314 315 312 314 317 314
294 294 294 294 294 294 295 286 288 289 287 287 291 293 295 295 295 296 296 298 299 299 299 299 299 300 305 301 304 309 314 316 316 318 318 313 313 316 313 315 317 314 315 315
294 294 294 293 293 292 294 287 293 293 291 289 290 292 294 290 293 294 295 296 298 299 298 297 299 300 298 300 307 310 312 317 316 313 311 312 313 316 314 315 316 316 315 312
294 294 293 293 293 291 291 288 291 292 292 286 287 285 285 288 290 294 292 294 296 297 297 296 297 297 298 301 303 307 308 316 314 315 313 310 313 313 315 315 316 315 312 314
294 294 293 293 293 292 291 291 291 291 287 278 282 282 289 292 294 292 295 297 297 295 296 297 298 298 298 298 299 302 307 312 314 315 309 309 310 311 313 314 312 314 315 312
294 294 293 293 293 292 291 291 291 289 288 283 284 285 291 291 293 294 294 294 295 295 295 295 296 296 296 298 299 299 304 306 313 315 313 317 311 306 309 312 311 310 310 310
294 293 294 293 293 293 291 291 291 294 291 291 289 292 287 290 290 291 293 294 293 294 296 297 299 302 303 302 299 299 301 306 313 315 315 311 311 309 308 309 311 308 309 307
294 293 294 294 293 293 291 293 292 293 292 285 288 290 284 291 289 287 289 291 292 296 297 293 295 300 305 308 310 303 303 304 308 312 317 317 311 309 305 307 311 307 307 308
294 293 294 294 294 293 291 292 292 292 293 288 286 288 292 292 291 288 284 289 290 294 295 295 300 302 308 311 313 310 308 309 309 312 312 306 300 300 304 311 309 301 303 305
294 293 293 294 294 293 291 293 292 293 294 292 289 291 292 293 289 285 287 288 288 288 293 295 298 300 303 309 307 311 312 313 313 314 317 316 295 299 305 297 296 297 299 301
293 292 293 294 294 293 292 292 289 290 292 287 291 291 292 292 292 289 284 285 290 294 291 289 288 296 299 300 307 295 301 286 293 297 299 289 290 292 288 289 292 295 295 297
294 292 292 293 294 293 292 289 288 288 283 283 285 290 294 293 286 289 282 282 288 290 292 292 289 292 295 297 291 291 282 280 284 285 287 283 285 284 285 285 288 291 291 292
294 291 292 292 293 292 291 290 288 288 285 283 283 288 289 289 283 282 284 287 288 289 292 293 290 291 290 289 283 280 277 278 278 282 281 280 289 283 283 283 287 289 289 289
293 290 291 290 292 292 291 290 288 288 286 280 282 287 289 283 281 281 285 286 289 292 290 293 291 287 286 282 279 276 276 276 276 277 278 278 280 280 281 282 288 288 287 286
293 289 291 289 290 292 291 284 289 288 287 285 282 283 280 280 281 281 283 287 286 291 290 289 286 284 284 282 279 276 275 275 275 276 276 277 278 279 283 286 288 286 286 286
292 286 290 289 288 287 287 286 287 285 288 279 275 276 277 278 279 279 280 283 286 286 287 285 279 277 277 273 273 275 274 274 274 275 275 276 279 279 283 284 285 285 285 285
289 285 290 291 287 287 286 287 284 287 282 274 269 275 277 277 276 277 278 281 283 285 284 282 280 277 274 273 274 274 273 273 273 274 274 275 278 279 280 282 283 282 282 283
286 286 290 288 283 282 283 286 284 282 280 272 272 274 274 277 275 276 277 278 281 286 283 281 279 276 275 275 274 273 273 272 272 273 274 274 277 277 278 280 280 281 281 281
285 284 285 278 282 281 283 282 275 274 272 272 275 274 274 275 274 274 278 276 280 283 285 280 275 276 274 272 273 272 272 271 272 272 272 273 274 275 277 278 278 278 279 279
286 282 277 282 281 280 274 272 274 270 272 277 274 272 274 274 273 275 278 276 279 280 283 278 277 276 270 268 269 271 271 271 272 272 272 273 273 274 275 276 277 277 277 278
286 283 283 280 276 272 275 268 273 275 277 275 273 271 272 272 273 277 276 278 279 280 275 271 275 269 268 267 269 271 271 270 271 272 272 272 272 272 273 274 274 275 275 276
283 280 275 275 273 279 279 278 275 275 273 270 269 271 269 270 270 268 275 274 277 278 271 273 270 269 267 265 266 269 271 271 271 271 271 272 272 272 272 273 273 274 274 274
279 277 279 279 279 278 279 279 278 275 274 272 268 267 269 267 270 270 274 274 272 268 268 271 266 266 264 264 265 266 268 270 270 271 271 271 271 271 272 272 272 273 273 273
281 279 282 276 279 274 274 272 275 272 270 268 266 266 267 268 268 268 270 271 270 269 272 270 268 265 262 264 266 266 269 270 270 270 271 271 271 271 271 272 272 272 272 273
279 277 278 278 279 278 276 275 273 269 268 267 267 263 265 268 267 270 270 267 271 272 269 268 265 266 264 264 267 270 271 270 270 271 271 271 271 271 271 271 271 272 272 272
275 277 278 281 279 282 279 276 274 269 271 270 265 269 272 264 266 267 268 269 271 268 266 267 267 266 264 268 269 271 271 270 270 270 271 271 271 271 271 271 271 271 271 271
Wind_Speed
35 36 36 36 35 36 14 4 3 21 19 5 2 3 8 7 9 5 4 4 4 4 6 4 3 3 4 14 11 2 2 2 8 18 1 1 7 14 5 7 11 2 4 6
36 36 35 35 34 32 7 2 2 10 13 4 5 6 5 3 7 7 6 5 7 7 4 5 4 8 10 9 8 4 4 3 6 4 2 2 9 7 18 12 3 10 8 5
35 34 34 33 33 30 4 3 4 4 5 3 4 8 5 12 7 5 7 5 6 6 4 6 7 7 4 14 7 11 4 1 1 12 20 10 6 18 8 21 12 5 12 5
35 34 32 31 30 27 4 4 3 1 4 5 7 4 5 6 8 4 5 6 6 7 5 9 2 9 10 10 14 2 7 3 1 3 4 6 6 18 15 11 20 14 13 9
35 33 30 28 26 24 10 3 3 3 2 3 6 6 3 2 6 3 5 2 7 10 7 6 13 7 4 4 8 10 6 1 2 4 3 6 6 10 16 21 19 16 8 13
35 31 28 25 21 18 6 5 3 0 3 4 4 3 4 6 12 5 10 12 11 10 9 5 7 7 9 11 8 5 4 1 3 4 5 5 3 12 16 17 8 14 14 11
34 30 26 22 18 15 8 4 2 2 3 2 1 4 10 9 10 7 9 10 5 3 13 14 11 13 13 13 13 10 4 5 1 2 3 4 5 3 10 12 7 13 2 9
33 29 25 20 16 12 9 3 2 2 3 4 4 13 4 11 7 4 4 5 11 12 4 3 5 1 2 7 13 15 13 2 3 4 7 5 2 6 7 8 16 7 8 7
33 28 23 20 16 12 8 7 5 1 2 4 2 4 2 6 9 7 4 9 10 7 2 2 1 3 4 3 2 11 12 10 4 1 5 9 8 14 6 7 8 8 13 14
32 27 21 18 16 13 8 4 4 2 1 2 3 1 3 3 5 3 5 14 7 5 5 3 2 3 4 1 3 4 5 5 11 8 3 6 7 11 5 8 6 8 7 8
32 27 20 16 14 12 9 4 8 4 2 4 3 2 2 2 2 3 7 7 4 4 6 4 4 3 5 5 3 3 4 3 5 5 4 6 17 4 2 9 8 10 6 7
32 27 20 15 14 10 7 2 10 8 4 4 5 9 9 5 1 4 3 4 5 2 3 3 3 3 3 5 3 8 2 4 5 7 3 10 10 10 10 13 13 12 15 12
32 27 18 13 12 9 4 4 18 4 3 4 3 1 5 1 11 5 1 3 3 4 2 2 2 3 3 4 4 5 14 15 3 8 9 22 9 17 19 18 15 16 12 12
32 27 17 11 10 5 4 5 20 7 2 1 5 3 4 2 25 23 14 16 12 7 3 2 2 2 4 3 3 5 4 12 13 6 11 21 6 25 24 25 19 15 10 8
32 26 16 8 7 4 1 3 15 17 3 2 4 12 2 14 32 26 13 9 5 3 2 2 2 2 4 3 4 3 5 5 5 5 17 12 19 23 30 22 17 12 8 7
31 23 12 7 4 1 2 2 1 20 7 1 3 3 7 27 30 21 14 7 2 1 1 2 3 3 4 2 2 3 10 9 10 8 15 18 23 24 18 15 11 7 7 7
32 20 6 4 4 4 4 2 10 15 0 3 4 5 5 17 7 8 4 8 2 2 2 3 2 3 3 3 3 12 15 14 17 12 14 9 9 15 17 11 9 7 9 10
30 15 1 1 1 2 1 10 12 3 6 6 3 4 5 11 4 4 6 3 3 4 2 2 2 2 2 2 8 12 12 16 11 15 15 15 15 14 11 10 6 5 5 4
23 7 3 3 1 2 3 6 5 10 7 3 3 2 4 7 2 2 4 2 3 2 2 2 3 2 4 8 14 15 15 11 14 17 13 12 11 12 11 8 7 4 4 5
17 3 2 3 4 10 2 1 3 5 6 4 2 1 2 3 3 3 4 2 2 3 3 2 3 2 3 4 9 10 12 12 13 13 15 15 12 11 12 8 6 4 4 5
9 8 1 6 8 1 6 3 3 3 4 1 1 2 2 2 1 3 1 3 3 3 3 2 1 1 3 6 8 9 14 14 12 11 11 11 8 8 8 9 9 8 8 7
10 10 7 4 5 3 5 1 3 1 2 1 2 2 2 2 2 2 3 2 3 2 2 3 1 3 5 6 8 11 14 15 13 14 12 14 13 14 11 11 12 12 13 13
3 1 3 3 2 3 4 3 3 2 2 2 2 2 0 3 3 2 2 3 2 2 3 2 3 2 4 6 5 7 14 15 15 14 17 15 14 17 17 15 16 15 18 17
2 2 5 3 3 4 4 4 4 2 3 3 2 1 1 1 3 1 2 3 2 3 3 4 3 4 4 5 5 4 7 11 11 12 14 14 13 14 18 19 19 17 19 20
2 3 5 6 3 1 1 1 2 1 3 3 2 2 2 2 2 2 2 5 3 5 4 3 3 4 3 3 3 5 5 8 8 10 10 12 13 12 15 18 20 20 20 19
3 3 2 1 0 2 2 3 2 3 3 2 3 2 3 2 2 2 5 5 6 4 3 2 2 2 3 3 5 7 7 8 8 8 8 9 11 11 11 18 19 19 19 18
3 4 2 3 1 2 3 4 3 11 3 2 3 3 7 2 2 3 4 5 3 3 2 2 3 3 4 6 8 5 4 5 6 6 6 6 7 11 12 12 14 17 18 19
Wind_Direction
1 1 2 360 359 356 18 22 34 344 3 49 32 14 320 304 324 359 312 293 324 346 315 337 314 327 3 340 314 254 252 192 164 194 158 200 186 202 159 191 214 162 152 249
360 0 0 1 0 2 345 62 305 352 19 57 11 327 309 291 342 312 351 316 359 353 303 315 357 5 327 3 336 190 10 244 137 128 247 43 200 197 206 223 78 202 198 242
359 359 359 1 1 1 33 68 24 338 32 32 16 3 342 344 330 313 340 308 334 350 339 4 320 317 331 318 333 271 332 264 196 197 197 169 178 209 203 209 223 201 223 186
360 358 0 1 2 3 38 29 48 96 335 350 349 351 331 344 348 359 311 342 17 357 314 325 321 21 336 326 2 19 170 216 182 337 325 162 177 197 193 197 221 212 227 207
1 360 359 2 4 8 57 84 24 336 326 322 344 345 310 307 308 252 311 208 304 297 279 261 292 322 332 295 348 354 353 204 130 311 348 26 217 213 203 217 219 226 192 227
2 2 0 3 9 20 57 29 355 60 345 359 36 272 313 310 321 270 247 284 302 274 270 273 269 265 257 259 298 327 324 263 129 239 63 14 342 212 207 216 210 212 216 216
2 3 4 3 10 16 32 33 354 27 306 53 263 323 319 291 314 276 280 298 274 260 323 294 254 244 243 237 242 218 289 334 237 169 82 207 249 314 214 217 217 223 215 184
1 3 5 7 8 11 12 13 37 353 327 305 326 338 299 302 279 264 269 308 330 308 332 315 328 335 276 245 223 203 207 237 266 181 188 288 319 249 166 180 245 221 224 228
360 3 6 8 5 5 19 71 45 357 332 284 244 309 315 345 338 332 292 320 330 327 287 52 297 227 234 238 166 193 190 216 270 254 197 229 257 233 149 108 265 214 203 221
357 359 4 8 7 2 13 66 32 340 288 272 110 305 320 355 330 271 316 337 329 352 348 338 296 285 213 174 161 160 170 204 224 239 247 290 351 316 311 162 263 339 337 264
356 354 354 359 3 5 10 54 23 9 274 286 179 255 284 280 22 354 308 342 357 340 11 4 339 311 331 335 303 323 180 238 181 205 234 242 356 348 129 334 315 321 313 326
354 352 349 348 354 351 346 12 356 319 221 244 279 289 280 240 26 329 313 221 299 304 3 8 330 316 321 318 305 351 81 15 296 4 45 341 334 49 7 354 331 325 318 308
351 350 346 344 350 347 334 53 17 7 43 312 7 39 23 11 355 327 136 281 258 326 338 272 251 283 339 359 30 317 353 22 15 328 17 340 288 5 354 351 333 318 322 307
348 347 344 345 352 341 321 62 30 27 105 80 280 342 340 251 343 345 265 252 285 274 258 247 251 294 20 48 78 63 346 325 326 283 6 338 268 341 326 327 326 331 340 339
348 345 343 346 348 299 310 77 34 28 53 225 281 317 48 345 352 343 352 225 233 252 308 260 19 29 7 77 81 55 349 339 338 290 322 283 291 300 305 310 318 333 347 351
346 344 343 345 8 272 327 347 252 3 350 124 343 317 344 351 354 348 348 344 262 276 335 23 55 41 347 63 72 169 348 313 287 281 294 288 282 284 284 312 328 342 13 28
344 344 347 5 72 66 82 141 319 332 338 79 338 336 338 344 355 344 339 332 345 67 66 47 76 21 40 71 22 322 323 312 306 301 322 311 312 310 313 328 329 1 37 44
344 345 330 162 44 107 77 11 3 15 105 63 61 302 352 13 338 328 350 334 325 18 104 46 58 18 52 92 323 318 317 317 300 328 318 294 291 311 321 332 342 12 27 61
341 340 248 275 315 24 321 331 324 36 62 106 72 71 296 0 333 310 322 17 345 354 63 50 71 357 44 315 322 324 328 326 309 316 315 328 330 332 337 347 0 10 31 63
338 342 289 348 344 325 342 6 22 16 345 28 93 136 294 25 339 306 331 346 310 0 61 79 67 112 233 276 312 310 319 323 325 333 338 342 339 335 347 348 358 20 30 65
347 2 254 314 328 12 35 32 67 327 19 13 217 156 252 4 27 297 304 299 298 24 350 91 17 257 280 302 315 319 319 324 326 324 321 329 331 344 351 356 7 31 50 65
302 287 301 315 29 35 78 296 322 83 219 195 132 249 215 301 347 300 318 297 5 337 8 68 283 253 280 317 318 326 328 332 334 345 341 347 6 8 14 21 19 34 52 70
285 291 33 43 315 30 144 228 291 282 198 215 39 333 331 341 42 324 354 18 249 332 34 240 224 251 299 307 304 321 334 344 347 354 357 2 16 31 31 31 32 47 56 60
78 85 286 165 263 242 185 187 176 202 119 137 115 56 65 290 25 275 56 257 48 19 353 242 241 248 269 297 301 326 328 341 344 351 356 359 11 31 39 38 41 46 54 58
226 116 244 215 205 135 145 118 128 114 113 106 80 46 84 338 45 53 8 1 283 204 230 233 223 246 268 300 313 315 326 336 340 346 359 5 7 31 46 50 57 59 57 61
165 225 257 163 60 179 188 181 163 156 121 94 54 110 52 296 142 64 215 128 229 238 209 206 195 253 273 281 306 318 331 336 343 0 6 25 26 24 47 64 65 67 69 65
212 248 232 185 294 208 159 150 158 150 124 158 121 124 217 98 37 260 195 210 216 196 217 194 191 220 258 289 312 319 339 335 343 355 25 38 61 71 57 54 61 75 80 81